Flag for U.S.A. Weather past 2 weeks in Rapid City, South Dakota, U.S.A.

Now
36 °F

Partly cloudy.


Feels Like: 28 °F
Forecast: 37 / 65 °F
Wind: 10 mph from Southeast

Location: Ellsworth Air Force Base

Current Time: Mar 26, 2015 at 9:55:54 PM

Latest Report: Mar 26, 2015 at 8:58 PM


Visibility: 10 mi

Pressure: 30.15 "Hg

Humidity: 73%

Dew point: 28 °F

Location of Rapid CityLocation

Historic Weather in Rapid City — Graph

°F

Rapid City temperature yesterday

Maximum temperature yesterday: 47 °F (at 4:58 PM)
Minimum temperature yesterday: 29 °F (at 1:58 AM)
Average temperature yesterday: 35 °F

Past Weeks' High & Low Weather Summary

 TemperatureHumidityPressure
High83 °F (Mar 15, 2:58 PM)93% (Mar 21, 5:58 AM)30.58 "Hg (Mar 21, 5:58 AM)
Low27 °F (Mar 18, 6:58 AM)13% (Mar 14, 2:58 PM)29.63 "Hg (Mar 24, 12:58 AM)
Average47 °F51%30.07 "Hg
* Reported Mar 11 8:58 PM — Mar 26 8:58 PM, Rapid City, Weather by CustomWeather, © 2015

Note: Actual official high and low records may vary slightly from our data, if they occured in-between our weather recording intervals... More about our weather records

Advertising

Rapid City weather history for previous 24 hours

 ConditionsComfort  
Time TempWeatherWind HumidityBarometerVisibility
8:58 PM
Thu, Mar 26
36 °FPartly cloudy.10 mph73%30.15 "Hg10 mi
7:58 PM39 °FMostly cloudy.13 mph66%30.19 "Hg10 mi
6:58 PM43 °FOvercast.8 mph52%30.19 "Hg10 mi
5:58 PM46 °FPartly sunny.9 mph50%30.17 "Hg10 mi
4:58 PM47 °FOvercast.10 mph50%30.17 "Hg10 mi
3:58 PM47 °FMore clouds than sun.10 mph51%30.18 "Hg10 mi
2:58 PM47 °FOvercast.15 mph50%30.18 "Hg10 mi
1:58 PM46 °FOvercast.16 mph50%30.16 "Hg10 mi
12:58 PM47 °FOvercast.18 mph50%30.16 "Hg10 mi
11:58 AM49 °FScattered clouds.22 mph48%30.15 "Hg10 mi
10:58 AM49 °FBroken clouds.25 mph43%30.13 "Hg10 mi
9:58 AM50 °FScattered clouds.23 mph43%30.11 "Hg10 mi
8:58 AM49 °FPartly sunny.20 mph46%30.10 "Hg10 mi
7:58 AM46 °FOvercast.20 mph52%30.09 "Hg10 mi
6:58 AM36 °FOvercast.8 mph68%30.10 "Hg10 mi
5:58 AM36 °FOvercast.7 mph70%30.11 "Hg10 mi
4:58 AM36 °FOvercast.5 mph67%30.14 "Hg10 mi
3:58 AM33 °FPartly cloudy.6 mph75%30.16 "Hg10 mi
2:58 AM32 °FMostly cloudy.3 mph73%30.19 "Hg10 mi
1:58 AM33 °FOvercast.5 mph69%30.21 "Hg10 mi
12:58 AM32 °FPassing clouds.6 mph73%30.24 "Hg10 mi
11:58 PM
Wed, Mar 25
32 °FClear.5 mph74%30.25 "Hg10 mi
10:58 PM33 °FPassing clouds.1 mph72%30.27 "Hg10 mi
9:58 PM33 °FOvercast.5 mph71%30.28 "Hg10 mi
Weather by CustomWeather, © 2015

See weather overviewHow to use our weather pages